Regional Weather Roundup
Issued by NWS Cleveland, OH

Home | Current Version | Previous Version | Graphics & Text | Print | Product List | Glossary On
Versions: 1 2 3 4 5 6 7 8 9 10 11 12 13 14 15 16 17 18 19 20 21 22 23 24 25 26 27 28 29 30 31 32 33 34 35 36 37 38 39 40 41 42 43 44 45 46 47 48 49 50
816
ASUS41 KCLE 052012
RWRCLE
OHIO REGIONAL WEATHER ROUNDUP
NATIONAL WEATHER SERVICE WILMINGTON, OH
400 PM EDT THU MAY 05 2016

NOTE: "FAIR" INDICATES FEW OR NO CLOUDS BELOW 12,000 FEET WITH NO
SIGNIFICANT WEATHER AND/OR OBSTRUCTIONS TO VISIBILITY.

OHZ001>008-015>018-024>027-034-035-043-044-052100-
   NORTHWEST OHIO

CITY           SKY/WX    TMP DP  RH WIND       PRES   REMARKS
DEFIANCE       PTSUNNY   66  41  40 N16G24    29.85F
FINDLAY        FAIR      65  36  34 NE23G30   29.83S
TOLEDO EXPRESS CLOUDY    63  37  38 N18G25    29.84S
TOLEDO EXEC    PTSUNNY   64  41  42 NE12G21   29.85S
LIMA           FAIR      62  43  49 NE18G29   29.83F
$$

OHZ009>014-019>023-028>033-038-089-052100-
   NORTHEAST OHIO

CITY           SKY/WX    TMP DP  RH WIND       PRES   REMARKS
CLE-HOPKINS    PTSUNNY   59  46  62 NE15      29.83S
CLE-LAKEFRONT  FAIR      54  47  77 NE9       29.80F
CUY CO. ARPT   PTSUNNY   59  50  72 NE15G24   29.80F
LORAIN-ELYRIA  FAIR      59  45  59 NE14G23   29.82S
ASHTABULA      PTSUNNY   57  47  69 N10G25    29.79S
AKRON-CANTON   PTSUNNY   61  47  59 N17G26    29.74S
WOOSTER        FAIR      58  48  69 N18G26    29.78S
MANSFIELD      PTSUNNY   57  47  69 N15G25    29.81S
YOUNGSTOWN     PTSUNNY   61  48  62 N24       29.73S
$$

OHZ042-051>053-060>062-070>072-077>081-052100-
  SOUTHWEST OHIO

CITY           SKY/WX    TMP DP  RH WIND       PRES   REMARKS
CINC-COVINGTON CLOUDY    51  44  77 NW10      29.87S
CINC-LUNKEN    CLOUDY    52  45  77 NW6       29.87S
HAMILTON       PTSUNNY   55  47  74 NW7       29.87F
DAYTON         PTSUNNY   58  46  64 N12       29.85S
WRIGHT-PAT AFB CLOUDY    59  49  70 N12       29.83F
DAYTON GENERAL CLOUDY    57  47  69 N10       29.84S
WILMINGTON     CLOUDY    51  45  79 NW9       29.83S HAZE
$$

OHZ036-037-039>041-045>050-054>059-063>069-073>076-082>088-052100-
  CENTRAL AND SOUTHEAST OHIO

CITY           SKY/WX    TMP DP  RH WIND       PRES   REMARKS
COLUMBUS       PTSUNNY   56  48  74 NW15      29.79S
OSU AIRPORT    CLOUDY    56  48  74 N12G20    29.80F
BOLTON FIELD   CLOUDY    55  48  76 N15G23    29.81S
RICKENBACK AFB CLOUDY    56  47  72 N18       29.79F
NEWARK         CLOUDY    60  48  64 NW12      29.76F
MARION         FAIR      59  47  64 N17       29.83S
LANCASTER      CLOUDY    56  47  71 NW14      29.78F
ZANESVILLE     CLOUDY    61  48  62 NW7       29.74F
NEW PHILLY     CLOUDY    57  51  80 NW7       29.74R
$$




USA.gov is the U.S. government's official web portal to all federal, state and local government web resources and services.